TimeEDT,TemperatureF,Dew PointF,Humidity,Sea Level PressureIn,VisibilityMPH,Wind Direction,Wind SpeedMPH,Gust SpeedMPH,PrecipitationIn,Events,Conditions,WindDirDegrees,DateUTC
12:53 AM,59.0,52.0,78,30.05,10.0,West,3.5,-,N/A,,Clear,280,2013-08-05 04:53:00
1:53 AM,57.0,52.0,83,30.05,10.0,West,4.6,-,N/A,,Clear,280,2013-08-05 05:53:00
2:53 AM,57.0,51.1,81,30.06,10.0,West,3.5,-,N/A,,Clear,260,2013-08-05 06:53:00
3:53 AM,55.9,51.1,84,30.06,10.0,Calm,Calm,-,N/A,,Clear,0,2013-08-05 07:53:00
4:53 AM,55.0,51.1,86,30.07,10.0,Calm,Calm,-,N/A,,Clear,0,2013-08-05 08:53:00
5:53 AM,53.1,50.0,89,30.09,10.0,Calm,Calm,-,N/A,,Clear,0,2013-08-05 09:53:00
6:53 AM,54.0,51.1,90,30.10,10.0,Calm,Calm,-,N/A,,Clear,0,2013-08-05 10:53:00
7:53 AM,63.0,54.0,72,30.12,10.0,Calm,Calm,-,N/A,,Clear,0,2013-08-05 11:53:00
8:53 AM,66.9,54.0,63,30.12,10.0,North,4.6,-,N/A,,Clear,350,2013-08-05 12:53:00
9:53 AM,69.1,50.0,51,30.12,10.0,NNE,4.6,-,N/A,,Clear,30,2013-08-05 13:53:00
10:53 AM,72.0,46.9,41,30.12,10.0,NNW,4.6,-,N/A,,Clear,330,2013-08-05 14:53:00
11:53 AM,72.0,48.9,44,30.11,10.0,ESE,4.6,-,N/A,,Partly Cloudy,120,2013-08-05 15:53:00
12:53 PM,73.9,48.9,41,30.09,10.0,Variable,3.5,-,N/A,,Clear,0,2013-08-05 16:53:00
1:53 PM,75.0,48.9,40,30.08,10.0,NW,4.6,-,N/A,,Partly Cloudy,320,2013-08-05 17:53:00
2:53 PM,75.9,50.0,40,30.06,10.0,Variable,3.5,-,N/A,,Partly Cloudy,0,2013-08-05 18:53:00
3:53 PM,77.0,48.0,36,30.04,10.0,Calm,Calm,-,N/A,,Partly Cloudy,0,2013-08-05 19:53:00
4:53 PM,77.0,48.9,37,30.04,10.0,Calm,Calm,-,N/A,,Clear,0,2013-08-05 20:53:00
5:53 PM,77.0,50.0,39,30.04,10.0,NW,3.5,-,N/A,,Clear,320,2013-08-05 21:53:00
6:53 PM,75.0,51.1,43,30.04,10.0,Calm,Calm,-,N/A,,Clear,0,2013-08-05 22:53:00
7:53 PM,70.0,60.1,71,30.05,10.0,Calm,Calm,-,N/A,,Overcast,0,2013-08-05 23:53:00
8:53 PM,68.0,53.1,59,30.06,10.0,Calm,Calm,-,N/A,,Scattered Clouds,0,2013-08-06 00:53:00
9:53 PM,66.9,52.0,59,30.06,10.0,SE,3.5,-,N/A,,Scattered Clouds,130,2013-08-06 01:53:00
10:53 PM,66.0,54.0,65,30.04,10.0,SE,3.5,-,N/A,,Clear,140,2013-08-06 02:53:00
11:53 PM,60.1,55.0,83,30.06,10.0,Calm,Calm,-,N/A,,Mostly Cloudy,0,2013-08-06 03:53:00